Find Starlink 3457

NORAD ID: 51754 Int'l Des: 2022-016 Owner: SPXS Country: US Constellation: starlink operational
LEOCIRCULAR

当前视图

正在加载3D地球...

About Starlink 3457

Starlink 3457 (NORAD 51754) is a starlink constellation satellite (v1.5) launched Feb 21, 2022 by SPXS of US. It operates in LEO, CIRCULAR orbit with a mass of 297.00 kg.

关于 Starlink 3457

正在加载描述...

即将过境

Passes for default location (London). Set your location on the main map for personalized predictions.

高度历史

Loading altitude history...

两行轨道根数

1 51754U 22016AS 26195.66668981 .00089427 00000-0 26808-2 0 9992
2 51754 53.1609 96.6454 0001527 99.3640 276.4436 15.33752567 5661
Epoch: Jul 14, 2026 • Age: 7 hours

当前状态

高度 483.6 km
远地点 / 近地点 N/A
速度 7.62 km/s
星下点 -52.12°S, 98.02°E
发射日期 Feb 21, 2022
运行时间 4.3 years
类型 internet

技术详情

分类 Payload
质量 297.00 kg
干质量 275.00 kg
总质量 297.00 kg
长度 0.20 m
直径 2.80 m
跨度 9.00 m
形状 Box + pan
制造商 SPXS
平台类型 Starlink
阶段状态 In Orbit
所有者/国家 SPXS/US

Most Searched